RH
15 14 13 22 25 24 22 15 15 18 20 22 25 28 41 55 54 69 72 43 38 19 17 62 51 38 64 63 71 71 30 11 23 34 40 43 44 49 47 38 46 58 63 67 63 61 61 57 56 49 35 26 20 20 20 21 21 22 22 20 19 17 15 15 14 13 12 12 12 12 11 11 10 10 9 9 9 9 9 9 10 9 9 10 9 10
14 15 16 23 22 18 18 17 15 15 18 15 14 16 19 36 54 72 75 47 29 12 19 67 66 37 40 46 48 39 19 14 19 27 32 35 39 41 46 45 40 44 53 57 57 59 55 49 46 34 23 22 23 25 26 26 27 29 28 24 21 21 20 19 17 15 13 12 13 13 13 12 12 11 10 10 10 10 10 9 10 10 10 10 10 10
13 17 16 16 16 16 16 16 17 16 18 19 18 17 22 47 65 60 50 36 25 13 21 57 64 44 38 39 31 16 16 21 17 23 26 30 39 34 34 37 28 30 45 54 55 50 43 41 35 23 23 28 30 31 32 33 34 35 33 28 27 27 28 27 24 21 17 15 14 15 14 14 14 14 13 13 12 12 12 11 11 11 11 11 11 11
32 40 28 22 18 15 15 15 17 17 18 21 22 19 26 52 67 63 53 37 27 19 18 35 45 47 44 35 24 15 18 22 19 24 24 28 38 30 23 24 21 23 33 44 48 39 33 33 27 24 32 36 37 38 39 41 43 42 38 35 35 33 32 31 28 25 22 19 18 17 17 16 16 15 15 15 14 14 13 14 14 13 13 12 12 12
46 46 32 29 24 17 16 15 14 16 17 17 20 20 30 51 55 58 62 46 38 36 26 25 25 27 29 27 29 26 19 19 19 20 21 26 31 29 27 25 24 20 20 35 45 36 28 29 29 32 38 41 43 46 49 53 55 53 48 45 43 38 35 33 29 27 25 23 22 20 19 18 17 17 16 16 15 15 14 14 14 14 14 13 12 12
47 32 26 27 20 18 19 17 16 17 17 20 23 19 23 36 35 40 47 34 30 38 37 36 31 30 37 46 58 59 44 33 26 20 19 24 26 29 32 31 28 20 20 37 41 31 27 29 33 39 43 47 54 61 63 67 69 65 58 54 50 44 39 35 31 28 25 24 22 21 20 18 18 18 17 17 15 15 14 13 14 13 13 12 12 12
37 20 23 24 17 20 18 18 20 17 18 27 34 33 28 26 22 26 29 26 32 39 36 34 37 48 60 67 70 67 56 43 36 30 21 19 20 22 27 33 36 29 29 36 28 27 36 37 40 49 53 56 64 72 76 80 83 78 69 62 56 49 44 38 33 29 25 23 22 21 20 19 19 18 17 16 15 14 13 12 11 11 11 11 10 9
27 19 22 21 17 17 16 22 25 22 24 30 37 42 41 36 27 22 19 25 41 47 37 30 33 41 52 67 70 62 58 53 49 45 33 24 20 21 24 29 36 38 38 35 26 32 46 49 53 58 60 63 68 75 81 85 88 85 76 67 58 52 48 41 34 28 24 22 21 21 20 19 18 17 15 14 13 12 11 10 9 9 8 8 7 7
30 36 33 27 23 18 24 32 29 30 32 32 37 40 42 44 36 32 30 31 39 43 39 40 43 37 39 58 63 50 51 59 62 56 44 36 30 27 27 27 33 40 41 41 40 47 55 57 61 64 64 66 69 75 79 82 86 89 85 73 61 55 49 41 32 25 21 21 22 22 20 19 17 15 14 12 11 10 9 8 7 7 7 5 5 6
38 48 45 38 33 28 31 30 24 32 36 34 42 45 40 39 36 36 36 37 44 42 37 49 62 56 51 64 70 58 52 65 79 68 48 45 40 31 29 29 33 38 44 51 56 59 60 59 63 66 67 70 74 77 78 82 89 92 90 78 63 54 46 35 28 23 22 24 24 22 20 18 15 14 12 10 9 8 7 7 6 5 5 5 4 4
42 45 49 48 46 43 40 35 31 36 35 28 35 40 35 34 35 33 32 40 49 41 33 46 60 55 49 60 74 72 64 72 87 75 51 45 43 36 33 33 34 39 49 58 61 60 58 59 64 68 73 78 79 80 81 86 91 91 87 78 63 50 38 29 25 24 26 27 25 23 21 17 15 12 10 9 8 6 5 5 4 4 4 4 4 4
52 52 50 46 46 47 45 41 40 40 40 35 32 31 34 43 47 43 46 53 50 42 44 52 52 44 39 48 62 69 73 81 86 75 52 40 39 40 40 39 37 38 47 56 56 55 57 63 68 72 78 81 80 83 88 87 85 82 78 71 57 42 33 30 29 28 29 30 28 24 21 18 14 12 10 8 6 6 6 5 5 5 4 4 4 3
76 76 70 62 52 45 43 42 41 38 34 35 35 34 41 61 75 75 76 78 69 65 73 72 63 53 43 43 51 55 59 61 62 60 47 36 38 39 38 40 41 41 45 48 49 53 60 68 73 74 77 78 77 80 81 78 72 69 67 60 48 42 39 36 35 35 34 33 30 27 25 21 17 13 10 9 8 7 7 6 6 6 6 6 6 5
95 93 88 80 57 35 28 32 46 55 47 39 38 38 47 71 92 91 83 85 85 82 86 83 76 69 58 53 54 47 43 42 40 42 39 35 35 30 27 31 35 39 41 41 46 51 55 60 63 65 65 65 66 66 65 64 60 57 53 44 41 48 49 43 42 43 41 38 36 35 34 29 23 19 16 12 10 10 11 11 10 10 10 9 9 8
91 93 90 86 71 49 32 26 35 49 52 47 45 49 58 72 84 86 87 94 95 89 89 86 79 74 68 67 66 58 52 54 50 44 39 35 29 23 24 27 28 33 38 38 39 39 37 40 44 47 51 54 57 58 57 53 46 41 38 36 45 56 53 46 46 47 46 46 47 48 46 38 29 24 23 21 19 20 23 23 20 19 19 17 16 14
54 65 72 68 64 51 35 28 19 15 28 37 35 41 54 65 69 69 78 84 79 79 86 82 73 70 67 62 62 60 55 54 53 50 45 41 37 33 33 36 35 33 35 34 30 26 25 25 26 30 35 39 43 45 43 38 33 36 41 46 56 61 54 50 50 51 52 53 54 57 56 48 37 28 27 28 29 31 33 34 32 29 27 26 25 22
39 53 58 43 36 28 16 15 8 5 23 30 27 37 53 66 65 55 58 59 51 54 60 57 50 50 57 59 56 56 56 53 47 45 45 44 44 44 40 40 38 33 30 28 25 23 24 22 22 23 22 23 26 28 32 34 37 46 53 57 63 61 54 55 57 56 58 59 61 68 67 59 49 37 29 28 28 33 40 41 38 35 32 31 30 28
28 42 52 40 35 33 20 13 7 5 11 13 27 50 57 58 51 40 43 46 43 41 43 48 46 42 58 77 76 64 58 57 51 43 43 45 46 48 48 46 45 44 40 36 32 29 27 24 22 22 21 21 20 22 30 37 43 52 55 58 63 59 55 59 60 57 59 63 68 73 71 61 54 46 38 32 29 34 43 45 42 38 36 35 33 32
19 26 41 41 36 35 29 21 11 7 6 2 15 32 38 46 50 46 46 45 44 42 39 49 54 51 66 88 91 74 58 57 61 56 49 47 47 49 52 53 55 60 60 56 54 49 44 38 32 27 24 21 22 27 37 44 51 61 67 73 78 73 65 65 63 61 64 70 75 76 69 60 56 54 50 45 42 44 49 49 45 42 39 39 39 37
21 21 30 39 36 28 29 29 18 18 23 18 12 10 13 27 37 44 48 43 42 46 46 51 57 71 89 92 83 78 72 68 70 71 62 54 53 53 56 59 61 68 75 75 74 71 67 63 55 46 37 30 34 42 50 55 59 66 73 81 91 91 82 78 76 73 71 76 81 80 73 67 63 62 61 57 53 53 55 54 49 45 43 42 43 43
16 14 15 30 34 24 29 36 29 33 46 46 41 34 27 27 34 41 42 37 36 40 46 47 51 75 96 85 72 81 92 88 77 72 66 59 57 55 57 65 68 73 79 82 83 82 79 78 75 71 61 52 56 66 73 75 73 76 78 81 88 88 84 87 90 83 78 85 92 88 79 73 66 63 64 63 60 58 58 59 55 50 48 46 46 46
11 11 9 17 24 29 42 44 29 28 38 45 51 50 41 45 56 51 40 43 50 49 54 58 58 71 76 68 73 85 90 90 82 75 69 65 65 60 56 62 68 72 76 79 85 87 86 85 84 87 83 75 76 84 90 93 93 93 91 88 89 85 81 88 97 96 91 93 98 92 83 81 79 74 70 66 65 63 58 59 60 56 53 51 47 45
11 12 12 13 14 22 35 33 21 18 21 24 29 29 26 36 50 45 34 42 49 45 53 60 56 59 58 56 72 78 69 68 70 68 64 60 63 64 57 54 56 61 66 70 78 84 88 88 84 86 89 87 85 82 82 86 93 98 97 96 98 94 88 89 93 98 99 97 96 85 74 83 93 91 87 81 76 74 67 64 63 60 58 57 52 49
15 15 13 11 10 11 14 12 9 9 10 11 10 9 9 13 21 24 19 22 27 28 40 47 43 49 52 54 67 71 64 66 68 65 59 52 51 53 50 48 49 54 58 61 65 71 81 87 85 79 76 74 70 65 60 60 66 75 83 89 92 84 81 84 81 79 79 81 88 83 74 87 99 98 98 92 83 85 88 81 71 64 63 62 58 56
20 22 18 13 12 11 8 12 16 14 12 12 11 11 8 5 10 19 21 24 24 22 27 32 36 49 59 65 77 79 72 72 73 68 63 58 55 53 46 40 41 47 53 57 58 58 63 74 82 81 72 63 54 48 47 44 43 47 51 55 56 51 54 69 78 81 78 75 83 83 74 81 95 99 100 92 83 89 97 93 85 76 70 67 65 63
14 17 15 13 14 11 11 27 42 42 36 29 28 32 23 12 18 27 28 29 27 22 22 22 24 40 52 55 62 64 61 64 64 60 62 60 53 54 53 46 38 36 42 49 54 56 55 57 65 72 71 65 57 50 46 42 39 40 40 38 38 35 34 41 49 62 71 70 72 73 68 75 91 97 98 93 88 86 86 88 92 89 80 76 78 78
11 12 12 11 12 9 13 29 40 39 38 33 31 38 37 32 35 30 19 17 19 18 21 24 24 33 41 44 50 57 63 72 71 68 77 74 55 48 53 51 41 35 35 37 38 44 51 52 54 59 60 59 57 52 46 42 37 35 36 37 37 36 35 34 31 34 39 40 40 44 52 67 80 86 89 90 86 81 77 76 82 87 86 81 82 86
10 10 10 10 11 10 9 15 18 17 19 20 19 23 32 40 41 31 17 15 20 18 14 20 29 36 44 59 76 85 89 92 86 80 88 89 75 63 59 56 49 43 44 41 29 23 30 37 42 47 49 49 48 45 41 39 36 30 28 30 32 34 35 36 36 33 31 30 28 27 29 36 44 52 62 70 74 76 77 75 72 77 84 84 82 83
13 13 12 14 21 27 26 23 23 22 20 23 23 17 17 23 25 23 18 18 30 36 26 21 26 28 32 47 69 86 92 88 83 85 92 92 85 76 70 69 64 57 58 60 49 33 25 23 25 28 32 34 34 33 30 28 28 27 24 23 24 28 31 33 35 36 35 34 32 30 28 27 28 33 42 54 66 74 81 83 81 78 77 78 78 77
19 17 15 17 22 29 34 33 36 39 31 25 23 16 12 16 18 21 22 24 38 51 50 48 44 35 31 36 46 60 67 63 63 75 86 90 91 86 78 79 77 67 65 67 62 54 44 34 28 26 25 26 25 25 25 24 24 24 24 23 21 22 25 27 30 34 36 36 35 34 31 29 29 31 34 40 47 54 63 72 79 82 79 75 73 69
45 33 27 31 30 26 27 29 35 43 39 30 25 20 18 21 22 24 27 32 40 44 50 60 57 44 42 44 44 49 53 52 53 61 68 75 83 83 78 83 83 72 69 69 62 55 50 42 36 33 32 32 31 29 28 27 26 25 25 26 25 24 25 26 27 28 30 32 35 37 36 34 32 31 29 29 28 30 35 39 47 62 71 72 67 60
66 57 49 50 48 39 34 38 44 45 36 27 25 23 23 27 33 38 40 41 44 43 47 55 50 42 46 49 46 47 50 51 54 61 66 68 72 70 68 79 83 72 68 70 64 57 51 44 40 39 37 37 36 36 35 34 33 32 31 30 29 30 31 33 34 36 37 35 32 32 34 34 35 35 33 32 31 29 29 28 29 35 42 45 44 40
74 75 72 68 59 47 45 51 53 47 36 28 27 32 40 40 35 37 38 37 40 44 46 46 42 43 51 48 42 48 53 53 55 61 66 72 81 79 75 82 86 77 70 68 63 61 57 47 43 43 42 41 39 38 38 38 37 37 36 36 36 34 34 35 38 50 67 70 60 50 45 39 37 38 37 36 36 33 31 30 29 28 27 28 26 24
80 82 80 79 70 58 60 63 54 42 35 30 28 33 42 40 30 29 32 31 32 36 37 37 39 46 49 39 33 41 46 46 52 60 65 73 80 80 76 78 77 70 69 69 65 63 58 51 48 48 46 46 44 43 43 42 40 40 39 39 39 37 37 37 37 51 79 97 94 87 81 70 60 56 56 58 58 51 43 38 34 31 29 27 25 23
69 66 60 64 59 49 52 52 39 27 23 23 25 24 23 24 21 20 22 22 22 25 28 33 38 41 38 28 24 27 31 37 44 49 55 62 66 68 68 68 65 63 65 70 71 66 57 51 48 44 40 41 43 45 46 45 44 44 43 42 41 40 39 39 37 41 57 79 91 96 98 98 95 92 92 91 85 74 62 53 47 41 38 36 31 28
61 57 53 54 43 30 34 35 25 18 18 24 29 23 14 15 18 17 16 15 15 16 18 21 24 24 20 17 16 17 23 37 39 32 35 44 46 50 56 59 61 61 57 58 61 55 44 36 31 25 23 25 27 29 32 34 37 41 44 45 45 44 42 41 40 37 39 48 59 65 70 77 84 88 87 81 74 64 55 48 45 42 39 36 32 29
33 30 34 37 28 21 25 27 22 18 17 18 22 22 22 24 22 15 15 16 15 14 15 15 15 16 13 12 15 13 17 32 38 37 46 55 47 42 46 50 50 45 37 34 36 32 24 19 16 15 16 17 18 18 18 18 20 24 30 36 41 44 45 44 43 42 39 39 39 40 40 42 45 47 47 45 42 39 37 35 33 32 30 30 29 28
20 25 28 27 27 27 23 21 20 18 14 15 21 28 37 43 39 33 37 40 30 19 15 14 15 15 12 11 14 13 14 29 46 52 54 55 48 40 39 39 37 31 23 19 19 20 18 16 17 20 21 22 24 24 23 22 21 20 22 26 29 34 38 41 44 45 45 43 41 40 38 36 35 35 34 34 34 34 34 33 31 31 31 30 29 29
21 34 40 42 48 48 39 30 23 19 18 22 29 34 41 49 51 50 54 50 35 23 19 16 16 17 14 11 13 14 21 38 57 61 50 41 42 41 36 36 37 33 28 26 26 24 22 24 28 30 29 31 34 34 34 33 33 31 31 32 34 35 35 38 42 45 47 48 47 46 45 43 42 41 40 40 40 39 39 38 37 37 35 34 33 33
21 29 42 52 50 44 43 39 30 27 28 25 29 42 52 56 56 58 60 51 37 33 30 20 17 19 18 15 13 19 39 58 66 64 54 49 53 50 42 43 45 41 40 42 37 30 32 38 40 38 38 40 41 42 43 43 42 41 41 42 43 44 44 45 45 46 47 49 49 50 49 48 47 48 48 47 47 46 45 44 42 40 39 38 37 36
45 52 59 64 57 54 67 73 66 61 52 36 34 45 50 51 56 62 63 54 43 41 36 24 19 22 27 28 25 31 56 77 78 71 68 68 68 61 55 57 58 53 50 46 38 36 42 47 45 44 46 47 46 48 49 48 47 46 47 48 49 50 52 52 51 49 49 49 50 50 50 51 51 51 51 52 51 50 49 48 45 44 44 42 40 39
77 84 76 72 73 82 95 98 90 80 63 46 46 49 43 47 58 57 51 52 54 52 44 34 30 31 34 39 41 45 62 80 84 82 81 81 78 70 65 66 63 56 51 47 44 46 48 48 49 50 51 51 51 53 54 54 53 52 51 52 52 53 54 53 51 50 50 49 49 49 50 52 53 52 52 53 52 51 51 51 48 47 48 47 44 43
87 79 64 65 76 83 86 88 84 74 61 52 55 57 50 50 56 50 42 51 60 56 47 43 44 44 39 36 41 48 59 72 81 82 81 82 83 78 72 67 61 56 53 51 53 54 52 51 54 56 56 55 55 55 56 56 55 53 51 51 52 53 53 51 50 49 48 48 48 49 50 51 51 52 53 52 51 51 52 50 48 49 50 49 46 44
68 58 57 71 80 74 71 80 83 75 68 64 64 62 52 42 44 46 45 51 59 59 55 53 52 50 43 35 34 38 45 54 62 66 68 71 73 73 70 66 62 59 57 56 57 59 58 55 56 57 58 58 56 55 56 54 52 49 47 47 49 50 49 49 48 48 47 47 46 47 48 49 49 50 50 50 50 51 50 48 47 48 47 45 43 43
65 61 63 71 73 66 61 71 82 79 72 68 65 60 52 41 40 45 48 51 55 57 58 55 50 46 43 40 38 38 39 42 46 50 53 55 58 59 59 58 57 55 53 53 54 54 54 52 52 52 50 50 50 51 52 50 47 44 43 42 43 43 43 44 44 43 43 44 44 46 47 47 46 46 46 46 47 48 45 43 44 44 43 41 40 39
62 60 58 57 60 61 55 54 64 68 63 60 58 55 51 47 45 46 47 48 48 47 47 47 44 40 38 38 38 37 36 36 37 38 40 41 42 44 44 45 45 44 43 43 42 41 40 39 38 37 36 35 37 38 39 38 35 33 31 31 31 29 29 29 28 28 30 32 34 37 39 40 40 42 43 44 44 43 41 40 41 41 38 36 36 36
53 51 54 52 51 54 50 49 53 54 51 50 49 48 46 45 45 45 43 42 41 39 37 36 36 35 35 34 33 32 31 32 31 30 31 31 31 32 33 33 33 33 32 31 29 29 29 28 27 26 25 24 24 25 25 24 21 20 19 18 17 16 15 15 14 14 13 13 15 17 18 20 22 23 27 30 32 32 32 34 36 36 35 35 36 35
49 43 47 48 46 44 42 44 46 44 41 40 38 38 40 40 40 39 36 35 35 34 34 33 32 32 31 30 30 29 28 28 28 27 27 27 26 26 26 25 25 25 24 23 23 23 22 20 20 20 19 19 19 18 18 16 15 15 14 13 12 11 10 9 9 8 7 7 7 7 7 7 7 7 9 11 12 13 15 18 20 22 25 26 25 24
39 36 36 35 33 31 31 36 37 34 34 35 33 32 33 33 32 30 29 28 28 27 26 26 26 26 25 25 25 24 24 24 24 23 23 23 22 22 21 21 20 19 18 18 18 19 18 17 17 17 17 16 15 13 13 13 13 11 10 10 10 8 8 8 7 6 6 6 5 5 6 5 5 5 5 5 5 6 6 6 7 8 10 11 11 12
34 37 35 27 23 27 37 44 40 30 27 31 32 31 33 33 30 26 23 21 20 20 20 19 18 18 18 17 17 17 17 17 17 17 17 17 17 16 16 16 16 16 17 17 15 15 16 14 13 13 13 12 12 12 11 10 9 10 9 9 9 8 7 7 6 6 6 6 6 6 6 5 5 5 5 5 5 4 3 4 5 5 4 5 5 4
39 39 38 33 27 29 36 38 33 26 24 29 31 29 29 29 25 21 20 19 17 18 17 16 16 16 15 15 15 14 14 14 14 14 14 14 14 16 20 24 24 22 23 23 19 16 15 14 13 13 12 10 10 10 10 10 9 9 9 8 7 8 8 7 7 7 6 6 6 5 5 6 6 5 5 5 4 4 6 12 15 11 8 9 10 10
Wind_Speed
16 16 14 14 16 15 13 14 14 13 12 11 10 11 12 11 10 11 18 23 18 16 16 14 15 21 21 21 19 17 19 23 24 26 27 27 29 29 31 33 32 30 29 29 29 28 29 29 30 29 27 26 25 24 24 24 24 25 25 25 25 25 25 25 25 26 27 26 27 27 28 28 28 29 29 30 30 31 31 32 32 32 32 32 31 30
17 16 17 19 19 17 15 15 15 13 13 13 11 11 13 11 12 15 17 16 15 16 15 12 15 20 22 23 24 20 19 21 25 26 27 28 29 30 31 34 35 32 29 28 28 28 28 28 27 26 24 23 22 23 24 25 26 27 27 26 26 26 25 25 25 26 27 27 26 26 27 28 28 29 29 30 30 31 32 32 32 32 31 31 31 30
16 15 20 23 21 19 18 17 16 15 14 14 13 13 13 14 14 17 19 17 16 16 14 14 15 16 18 21 24 21 18 21 24 25 27 28 29 31 32 34 35 33 29 27 28 28 27 25 25 23 22 21 22 23 24 25 27 28 28 27 26 25 25 24 24 25 26 27 26 25 25 26 27 28 28 29 30 30 31 31 31 31 31 31 30 30
12 15 20 19 18 20 19 18 18 17 17 17 17 16 16 16 16 18 21 22 20 17 17 18 18 17 16 19 22 21 20 21 21 22 25 27 28 30 32 33 34 33 29 27 29 28 25 23 23 21 20 21 22 23 25 26 28 29 29 28 27 26 24 23 23 23 25 26 26 25 25 25 25 26 27 28 28 28 29 30 30 30 30 30 30 29
14 19 19 15 16 19 19 19 19 18 20 20 20 20 19 18 19 20 21 22 18 16 18 20 22 21 19 20 22 23 23 23 21 22 23 24 26 28 29 30 31 31 28 27 29 27 23 23 22 21 21 22 23 24 26 28 29 31 31 30 28 26 25 24 23 23 23 25 25 26 26 25 25 25 25 26 26 27 27 28 28 29 29 29 29 29
18 21 19 19 19 19 18 18 19 19 20 21 21 22 23 23 24 23 23 24 21 19 20 21 22 21 18 20 22 23 23 21 21 22 21 23 24 24 26 27 27 28 27 27 27 24 23 23 22 22 22 22 23 25 28 29 30 32 33 32 30 28 26 26 25 23 23 24 24 25 25 25 24 24 25 25 25 26 26 26 27 27 27 27 27 27
21 21 19 20 19 18 18 18 18 19 18 19 20 21 23 25 27 26 26 27 24 22 24 24 22 19 17 19 21 24 24 21 21 22 23 24 24 24 25 24 25 27 28 27 25 24 24 24 23 23 23 24 25 27 29 30 31 33 34 34 32 30 28 27 26 25 24 23 23 24 24 24 24 24 24 24 25 26 26 26 26 26 25 25 25 24
23 22 20 20 18 17 17 17 18 19 19 20 22 21 21 22 25 26 25 26 25 24 26 26 23 22 21 19 21 24 24 21 22 23 24 25 25 25 25 25 26 28 28 27 24 24 25 25 24 24 25 26 28 29 31 31 32 33 35 35 34 31 30 30 28 26 24 23 22 22 22 22 22 23 23 24 24 25 26 26 25 25 24 24 23 23
22 20 19 18 17 16 16 18 19 19 18 20 22 21 20 20 22 23 22 24 24 24 27 25 22 25 25 22 23 27 25 21 21 23 24 24 24 26 26 28 28 27 27 26 26 26 27 27 27 27 27 28 29 31 32 31 32 34 35 36 34 32 32 32 30 27 24 22 20 20 20 20 20 21 21 22 23 24 25 25 24 24 23 23 23 22
20 18 18 16 15 16 19 21 20 18 18 19 20 20 20 20 21 22 22 21 22 25 24 21 21 25 24 20 22 27 26 21 21 26 27 25 24 26 27 28 28 27 28 29 29 30 30 30 30 30 30 29 31 32 32 32 32 34 35 36 35 32 32 32 29 25 21 19 18 17 18 18 18 19 19 20 21 22 23 23 22 22 22 22 22 22
20 20 19 17 16 17 20 20 18 17 18 19 19 19 20 20 20 20 20 20 22 25 23 20 23 27 25 19 20 26 26 21 21 26 28 25 25 27 26 27 28 29 30 31 32 33 32 32 32 32 31 31 32 33 34 34 34 35 36 37 35 32 32 31 27 22 19 17 16 16 16 17 17 18 18 18 19 20 21 21 21 21 21 21 21 21
19 20 19 20 19 19 20 19 18 18 17 17 17 18 19 19 19 19 18 19 22 22 21 22 24 27 26 21 21 25 25 22 21 24 27 28 27 27 26 28 30 31 31 33 34 34 33 32 33 33 33 33 33 33 35 37 37 37 37 37 35 32 30 27 23 19 17 16 15 15 16 17 17 17 17 18 18 19 20 20 20 20 20 20 20 20
15 14 16 18 17 17 18 17 18 19 19 18 18 18 19 16 16 17 16 18 19 17 18 21 22 24 23 20 23 26 25 23 23 24 27 27 27 27 28 30 31 32 33 35 35 34 34 34 35 35 35 35 35 35 37 38 38 37 37 37 35 31 29 25 20 18 17 16 16 16 17 18 17 17 17 18 18 18 19 19 19 19 19 19 19 19
11 11 14 16 15 16 16 15 16 16 16 17 17 18 19 16 16 17 16 16 16 16 19 21 20 21 20 20 24 27 25 25 25 25 25 24 25 26 28 30 31 31 33 34 34 35 35 36 36 37 36 36 36 36 37 38 37 36 36 37 34 30 28 24 20 19 18 17 17 17 18 19 18 18 18 18 18 18 18 19 19 19 19 19 18 18
12 11 14 15 14 14 13 14 16 15 14 14 15 16 17 17 17 17 17 16 16 16 19 19 19 19 19 20 24 25 23 23 24 25 25 24 25 25 26 27 28 29 30 31 32 33 34 35 35 36 36 36 36 36 36 37 36 34 34 34 32 29 27 23 21 20 19 18 18 19 20 20 20 19 18 18 19 18 18 19 19 19 19 19 18 18
17 14 17 18 14 13 12 13 15 16 15 15 15 17 17 18 19 20 20 20 20 20 19 19 19 19 21 23 24 24 24 23 23 24 25 25 25 25 24 24 24 26 27 28 28 29 30 30 30 31 32 33 35 34 34 34 32 31 31 31 30 29 26 23 22 21 21 20 20 21 22 22 21 20 20 19 19 19 20 20 20 20 20 20 19 19
17 14 17 19 17 18 17 16 17 15 15 16 16 16 18 18 20 21 22 23 24 24 24 24 25 24 25 26 26 26 25 25 25 26 26 26 26 26 26 26 25 26 26 26 26 26 26 26 26 27 28 29 30 30 30 30 29 29 29 29 29 29 26 24 23 23 22 22 22 23 24 24 23 23 22 21 21 21 21 22 22 21 21 21 20 19
20 18 19 19 18 21 19 18 18 17 16 17 15 16 17 18 18 19 21 22 23 24 25 24 24 24 24 22 23 26 24 24 25 26 26 26 26 26 27 27 25 24 24 25 25 25 24 24 25 25 25 26 27 28 28 28 28 28 28 28 28 28 26 25 26 25 24 23 24 24 25 24 24 24 23 23 22 22 23 23 23 22 22 21 21 20
25 22 21 20 20 22 20 19 19 19 19 19 19 20 18 17 17 18 20 22 21 22 23 22 21 22 21 18 21 26 25 23 23 24 25 25 26 27 27 27 25 24 23 23 23 24 23 23 23 24 25 26 27 28 28 29 29 29 29 28 28 28 27 27 28 27 26 26 26 25 25 24 23 23 23 23 22 22 23 23 23 23 22 22 21 20
26 24 23 21 22 22 20 20 20 19 20 20 21 22 20 20 20 19 21 23 22 23 23 22 22 20 17 19 23 25 25 22 20 22 24 24 25 26 27 27 27 25 24 23 23 23 23 23 23 23 25 26 27 28 29 30 30 30 31 30 31 31 30 30 31 30 30 29 28 26 25 24 23 23 23 23 22 22 23 23 23 23 23 22 21 20
26 26 25 23 24 24 21 21 22 20 20 20 20 20 20 21 21 21 23 24 24 25 24 25 25 20 18 24 25 21 20 20 19 21 24 24 25 26 27 28 28 27 26 25 25 24 23 23 23 24 25 26 28 28 30 32 33 33 33 33 33 33 32 33 34 34 32 31 29 26 25 26 25 25 24 23 23 23 23 23 24 24 24 23 23 21
27 27 26 24 25 24 21 23 24 21 21 21 21 22 22 22 22 23 24 23 23 25 25 25 26 23 24 28 26 22 23 24 22 23 25 25 25 26 27 29 29 29 29 28 27 26 26 25 25 26 26 27 28 29 29 31 34 36 37 37 35 32 31 34 37 37 34 30 28 26 27 28 29 28 26 24 24 24 24 24 23 24 25 25 24 23
28 27 27 26 26 25 25 27 26 24 24 25 26 27 26 26 26 26 27 26 27 27 27 28 29 29 29 29 27 27 30 31 30 29 29 29 28 27 27 29 31 33 33 32 31 29 29 29 29 28 28 28 29 29 28 28 31 35 36 36 34 32 33 35 37 37 35 31 30 29 30 32 33 31 27 26 25 25 26 25 24 25 25 26 26 25
29 29 30 30 30 30 30 31 31 29 29 30 30 31 31 30 31 31 31 31 32 30 30 31 31 32 33 31 30 31 32 33 33 32 32 31 31 31 31 31 33 35 36 36 35 33 32 32 32 32 30 30 30 30 30 29 30 31 32 33 34 33 33 33 33 34 34 33 32 32 33 35 36 34 29 26 27 27 27 26 26 27 27 27 28 28
31 30 33 33 33 32 31 30 31 31 31 32 32 32 33 33 32 32 31 33 34 33 33 34 34 34 35 33 31 31 31 31 31 32 32 32 33 35 36 35 35 37 38 39 39 37 36 35 36 36 34 33 32 31 31 31 32 33 33 34 35 35 34 33 32 33 33 33 33 33 34 36 37 37 33 29 28 30 29 27 26 27 28 29 31 31
35 34 35 35 34 34 32 28 27 27 29 32 31 31 34 34 31 30 32 34 35 34 35 38 38 36 36 36 35 34 34 34 34 35 35 36 38 38 38 38 39 39 40 41 41 41 40 39 38 39 39 38 36 35 34 34 34 36 37 38 38 38 38 37 37 36 35 35 35 35 35 35 35 36 36 33 32 32 33 31 30 29 29 29 31 32
38 37 37 38 38 37 34 30 30 30 32 34 33 33 35 34 32 33 36 37 36 36 37 38 37 36 37 38 38 39 38 36 35 35 34 36 40 40 40 40 41 42 42 42 43 43 43 43 42 42 42 41 41 40 40 38 38 38 39 41 41 41 41 41 41 41 40 39 39 39 39 38 37 37 38 37 35 35 35 35 35 33 31 31 31 32
39 40 39 39 39 40 39 37 37 37 38 40 41 39 37 38 38 38 37 36 37 40 40 37 36 37 37 35 34 34 34 31 31 32 31 32 35 37 39 40 40 41 40 39 42 44 44 45 45 45 45 45 45 45 44 44 43 42 41 42 44 44 45 45 45 45 45 44 44 43 43 44 44 43 41 39 38 38 38 39 39 38 36 35 35 34
39 40 39 39 38 38 38 39 39 40 42 44 44 43 41 42 43 42 40 37 36 38 39 38 39 40 39 38 35 33 33 33 33 33 32 32 33 34 36 36 36 36 34 33 36 40 42 44 45 45 46 47 48 48 47 47 47 45 44 43 44 46 46 47 47 48 48 48 48 47 47 47 47 47 44 42 41 41 41 41 41 40 39 39 39 38
39 39 39 39 39 39 38 39 39 41 43 45 46 45 44 43 44 44 43 40 37 35 36 37 38 39 39 40 40 40 40 40 39 37 35 35 35 36 36 35 35 35 33 32 32 34 37 39 41 43 44 45 46 47 48 48 47 47 46 45 44 45 47 48 49 49 50 50 51 51 51 50 50 50 48 46 46 46 45 44 43 42 41 41 41 41
35 36 37 38 39 41 41 40 40 41 43 45 45 45 45 44 44 44 44 42 40 38 38 39 40 40 39 39 41 42 43 43 42 41 39 38 38 38 38 38 38 39 39 38 38 38 40 41 41 42 43 43 44 45 45 46 46 47 46 45 45 45 45 46 47 48 50 51 52 52 53 52 52 52 52 51 51 50 49 49 48 47 45 45 45 46
33 34 35 36 38 40 39 38 40 43 45 46 45 46 46 45 43 42 42 43 42 42 41 41 42 42 41 42 43 43 44 43 42 42 42 42 43 43 43 40 40 42 41 42 42 41 42 43 43 43 43 43 44 44 45 45 46 46 46 46 45 45 44 44 45 46 47 49 51 52 53 53 53 53 53 53 53 53 52 52 51 51 50 50 50 50
35 34 35 36 38 40 39 38 42 45 46 45 44 43 43 44 43 43 44 44 43 43 43 44 44 43 43 47 46 44 43 43 43 44 44 42 42 44 44 41 41 41 41 43 44 42 42 43 42 41 41 42 43 44 45 45 46 46 47 47 47 46 46 45 45 45 45 47 50 51 52 53 53 53 53 53 53 53 53 53 52 52 52 51 51 51
36 36 36 36 37 39 38 39 43 45 45 43 42 42 41 41 42 42 42 42 42 43 43 44 43 42 44 47 47 44 44 44 43 44 44 43 43 44 44 43 43 44 43 44 45 45 45 44 43 43 43 43 44 44 44 45 46 46 47 47 47 47 47 47 47 47 47 48 50 51 51 51 52 52 52 51 51 52 52 52 53 53 52 52 52 52
35 38 38 36 36 38 39 40 44 46 44 40 39 42 43 41 40 41 41 41 41 41 41 41 40 40 43 46 46 45 46 44 43 44 46 46 47 47 47 47 47 48 48 46 46 48 49 47 46 46 46 45 45 45 46 46 46 46 47 47 48 48 48 49 49 50 51 52 52 51 50 50 50 50 50 50 51 52 52 53 53 54 54 54 54 54
33 35 36 36 37 39 40 43 46 46 43 40 40 44 45 43 42 43 43 43 44 44 43 43 44 45 47 47 46 46 45 42 41 45 46 46 47 47 48 48 48 49 50 50 49 50 50 49 48 47 46 46 46 47 47 47 47 47 48 48 48 49 49 49 50 51 53 54 55 55 54 53 53 54 55 56 56 57 57 57 56 56 57 58 58 58
38 37 37 38 40 41 42 44 46 46 45 44 44 44 44 42 43 44 44 45 47 47 46 47 47 48 49 48 47 48 47 42 40 41 39 39 41 44 45 47 48 51 52 51 50 50 50 49 48 47 46 47 47 47 48 48 48 48 48 48 49 49 50 50 51 51 52 53 55 56 57 57 57 58 58 58 58 58 59 59 58 58 58 59 59 58
40 39 38 40 41 42 43 44 45 46 47 46 44 41 39 39 41 42 40 41 44 46 47 46 46 46 48 47 46 47 47 41 39 40 39 38 40 43 44 45 47 49 51 51 50 50 50 50 49 48 48 47 47 48 48 48 48 48 48 48 49 49 50 50 50 51 51 52 53 54 55 55 55 56 56 56 55 55 55 56 56 56 56 56 56 55
39 37 36 37 38 39 41 42 43 45 45 43 40 38 37 38 39 37 37 39 42 44 45 45 44 44 46 46 45 45 44 39 38 40 40 41 44 46 44 44 45 47 48 48 48 49 49 49 49 49 49 48 47 47 47 46 46 46 46 46 47 47 48 48 49 49 50 50 51 52 52 53 53 53 53 53 53 52 52 53 53 53 53 53 53 53
38 35 34 35 37 38 40 40 41 43 44 42 39 38 37 36 36 36 37 40 41 41 42 44 44 44 44 45 44 41 39 38 38 39 40 42 45 45 44 45 45 46 47 48 49 49 48 48 48 48 48 48 48 47 47 46 46 45 44 44 44 44 45 46 47 48 48 49 50 50 50 51 51 51 51 51 51 51 51 51 51 51 51 51 51 52
33 30 31 33 34 33 33 34 34 37 42 42 40 40 39 37 37 37 39 41 41 41 43 45 44 43 42 43 43 39 36 37 39 40 40 41 43 44 45 45 45 46 47 48 48 47 46 47 48 47 47 48 48 48 48 47 47 46 45 44 44 43 44 44 45 46 47 48 48 49 49 49 49 50 50 50 50 50 50 50 50 49 49 50 50 51
27 27 29 30 30 28 29 32 34 36 40 40 39 40 40 38 39 40 41 41 41 41 42 43 43 43 43 42 42 41 38 38 39 39 40 41 42 44 45 46 47 48 48 48 47 47 47 47 47 47 48 49 49 49 48 48 48 47 46 45 45 44 44 44 44 45 45 46 47 48 48 48 49 49 49 49 50 49 50 50 50 48 48 49 50 50
27 31 31 31 31 30 30 33 36 38 40 40 39 40 40 39 41 43 43 42 41 41 42 42 42 43 44 44 44 42 41 41 40 40 41 41 42 44 46 47 48 49 49 48 48 48 48 48 48 48 49 49 49 49 48 48 48 48 47 46 46 45 45 45 45 44 45 45 46 46 46 47 48 48 48 49 49 49 50 50 50 49 49 50 50 50
31 33 32 31 32 33 32 32 34 36 38 38 39 40 41 42 43 43 42 41 41 41 41 42 43 44 46 47 46 44 44 44 43 43 43 43 44 45 46 47 48 49 49 49 49 49 49 49 49 49 49 49 49 49 49 49 49 49 49 48 47 47 47 47 47 46 46 46 46 45 45 45 46 46 47 48 48 49 49 50 49 49 50 50 50 50
31 31 32 32 34 35 35 33 34 36 37 38 38 40 41 43 43 42 40 40 41 41 42 43 45 46 46 46 46 46 45 45 45 45 45 45 45 46 46 47 48 49 49 49 49 49 49 49 49 49 50 50 50 50 50 50 50 50 50 49 49 48 48 48 47 47 46 46 46 46 45 45 45 45 46 46 47 48 49 48 47 48 49 49 49 49
30 32 33 34 35 36 37 37 38 38 40 40 40 41 42 42 42 41 41 42 43 43 43 44 46 46 46 45 45 46 46 46 46 46 47 47 47 47 47 48 48 49 50 50 50 50 50 50 50 50 50 50 50 50 51 51 50 50 50 49 48 47 47 46 46 45 44 44 44 45 45 45 46 46 46 46 46 47 48 47 47 48 48 48 48 48
32 32 33 34 35 35 37 38 39 40 41 41 41 41 41 42 42 43 44 45 45 46 46 46 46 46 47 46 46 47 47 47 47 47 47 48 48 48 48 49 50 50 50 50 50 51 51 50 51 51 51 51 51 51 51 51 50 50 50 48 47 47 46 46 46 44 44 43 43 44 45 45 45 45 45 45 46 47 47 46 46 47 46 46 47 47
33 32 32 33 35 35 36 36 38 41 42 42 40 40 40 42 44 45 46 46 46 47 48 48 47 47 48 48 47 48 47 48 48 48 48 49 49 49 49 49 49 50 50 50 51 51 51 50 51 52 52 52 52 52 52 52 51 51 50 49 48 48 48 47 46 45 44 44 43 44 44 44 44 44 45 45 46 46 46 46 46 46 46 46 47 46
32 31 32 34 35 35 35 35 38 40 40 40 40 40 40 42 43 44 46 46 46 46 47 48 48 48 48 48 48 48 48 48 49 49 49 50 50 50 49 50 50 50 51 52 52 51 51 51 52 52 52 52 53 53 52 52 52 52 51 49 50 50 48 47 46 45 44 43 43 43 43 43 42 43 43 43 43 44 45 45 45 45 46 46 46 45
31 31 33 36 36 34 33 33 37 39 39 37 38 38 39 40 41 42 44 45 45 46 48 48 48 48 48 49 49 49 49 49 49 50 50 50 51 50 50 50 51 51 52 52 52 52 52 53 53 53 53 52 52 52 51 51 51 51 50 49 50 50 48 47 46 45 44 43 43 43 43 43 43 43 43 43 42 42 43 43 44 44 45 45 44 42
32 32 34 36 36 35 35 35 38 40 39 38 38 38 38 39 40 42 42 43 44 45 46 47 47 47 47 47 48 49 49 49 49 49 49 49 49 49 48 49 49 49 49 50 51 51 52 52 52 52 51 51 51 51 50 50 50 50 49 48 49 48 47 46 45 45 44 44 44 44 44 44 43 43 43 42 41 40 39 38 37 37 37 36 35 34
Wind_Direction
251 249 245 241 240 237 235 227 227 236 237 246 246 228 222 216 207 226 253 254 259 255 229 228 227 210 227 244 238 251 256 242 240 243 244 243 244 246 249 253 253 250 252 255 258 263 263 265 271 275 277 278 277 278 279 280 280 280 279 278 278 278 278 278 277 275 273 271 269 269 268 267 266 265 264 263 262 262 263 264 265 265 266 267 267 268
253 252 246 243 246 243 237 235 234 235 239 244 242 237 235 226 210 222 250 261 262 256 234 233 244 228 231 244 245 256 264 249 244 247 246 245 244 244 245 250 252 251 252 256 260 262 262 266 272 276 277 276 276 278 278 280 280 280 280 279 280 281 281 281 279 276 274 272 270 268 267 266 266 266 266 266 265 265 265 265 266 266 267 267 268 268
257 257 254 252 251 247 240 239 240 237 237 240 237 234 233 227 223 238 252 259 264 258 238 243 258 245 237 247 253 257 256 251 248 248 248 247 246 246 246 248 251 252 253 255 258 261 265 270 274 276 276 276 276 277 278 280 280 279 280 281 282 283 285 285 282 279 275 274 272 270 268 267 267 267 266 266 266 266 266 266 267 267 267 267 267 267
253 253 258 261 254 249 246 243 243 243 240 238 236 235 233 229 229 245 255 253 257 255 243 248 258 255 253 258 261 259 253 252 252 249 249 248 247 249 249 249 252 253 252 254 259 263 268 272 275 275 274 275 276 277 277 277 277 277 279 280 282 284 286 287 286 282 279 276 275 272 270 268 267 267 267 267 267 266 266 266 266 267 267 267 267 266
248 249 254 261 256 252 251 248 247 247 247 245 241 237 237 240 234 234 244 251 255 256 250 253 258 260 265 269 268 263 256 252 251 251 251 250 250 250 250 250 253 254 254 256 259 262 268 272 273 272 272 273 275 276 274 273 274 276 278 280 282 285 287 289 288 286 282 280 277 274 271 269 267 267 267 268 268 267 266 266 265 265 265 265 265 265
252 255 256 258 257 256 255 253 251 248 249 251 250 244 239 244 245 240 245 253 258 262 259 255 257 261 265 263 258 257 258 253 250 253 254 254 254 254 254 254 254 254 254 254 256 261 269 270 270 270 271 273 275 273 271 271 273 276 279 282 284 286 288 289 290 289 286 282 277 274 270 268 266 266 267 267 267 267 266 266 265 264 264 263 263 263
255 259 259 261 260 259 258 257 256 252 249 251 251 247 241 243 249 249 251 254 255 259 261 257 256 258 257 254 251 253 259 261 258 256 253 254 256 256 257 258 258 258 255 254 258 263 266 266 267 269 270 272 272 270 270 271 274 277 280 282 284 287 289 290 291 291 288 283 277 272 269 266 265 265 266 266 265 265 264 264 264 263 263 262 262 262
257 261 260 262 262 260 258 253 255 254 247 246 248 248 246 245 250 254 255 255 254 253 255 257 258 256 252 252 257 257 258 262 262 258 255 254 252 251 251 253 254 257 256 255 259 262 262 262 264 264 266 267 268 268 269 271 273 277 279 281 283 287 289 290 290 290 287 281 275 270 267 265 265 265 265 265 264 263 263 263 263 262 262 262 261 261
259 263 261 259 258 257 252 246 246 249 243 243 248 250 248 248 251 255 255 255 256 254 255 258 260 258 253 251 256 259 258 258 258 258 257 252 249 248 247 249 252 255 256 255 255 255 256 258 259 260 261 262 263 265 266 269 272 274 277 279 282 285 287 287 288 287 282 276 271 268 267 266 266 266 266 265 265 264 265 265 265 265 264 264 263 262
262 265 265 261 256 250 247 247 246 246 245 245 249 250 250 252 254 256 258 258 258 257 256 258 259 259 257 252 255 261 261 253 249 253 254 250 249 251 249 249 251 251 250 249 249 250 251 254 256 257 259 259 259 261 264 267 269 273 276 278 280 283 284 284 284 281 275 271 269 269 268 268 268 269 268 268 267 266 267 268 269 269 269 268 267 266
260 260 263 260 254 249 249 252 250 246 247 247 249 251 254 256 256 257 258 257 255 257 259 257 256 258 259 256 257 262 261 248 239 247 253 253 251 253 252 251 250 248 246 246 247 249 250 253 254 256 256 256 256 259 264 266 268 270 273 275 278 279 279 279 278 273 270 270 271 271 271 271 271 271 272 271 270 269 270 271 271 271 271 271 270 269
259 261 263 257 251 250 253 253 251 248 246 246 247 250 254 255 257 257 257 254 255 260 263 258 255 258 260 255 250 253 254 248 242 248 256 259 256 254 252 250 250 249 248 247 249 251 252 253 254 255 255 255 255 257 262 265 266 267 270 272 275 275 274 273 269 264 266 270 273 275 275 274 273 273 274 274 274 273 273 273 273 273 272 271 271 270
260 264 263 259 254 252 254 257 256 251 247 246 246 248 250 252 254 255 251 253 258 261 260 256 256 258 259 253 248 249 253 255 254 255 258 260 259 256 251 248 249 249 248 249 250 252 252 252 252 253 254 254 255 255 258 260 262 264 266 268 270 270 268 265 261 260 263 269 274 278 279 277 275 273 273 273 274 274 274 274 275 275 275 274 272 271
258 265 262 262 265 261 254 251 251 248 245 243 243 245 245 243 245 249 249 252 259 261 256 252 252 257 259 255 254 256 256 257 258 258 259 259 258 256 253 250 249 248 249 250 250 250 250 250 250 251 252 253 254 254 255 257 259 261 262 263 264 262 261 259 258 260 264 269 274 276 278 278 276 273 272 270 270 271 272 273 273 275 276 275 274 273
248 256 257 257 264 265 252 242 245 248 250 245 242 244 243 239 238 243 248 247 245 247 251 252 254 259 260 253 255 259 258 256 259 262 262 261 259 257 254 252 249 248 248 250 250 249 249 249 249 250 250 250 252 252 254 256 258 258 257 257 256 255 256 255 255 258 263 268 272 274 275 275 274 273 271 268 266 266 268 269 270 270 272 273 273 272
244 245 251 248 249 257 253 249 250 252 257 253 244 244 247 246 243 242 245 246 245 245 251 259 263 265 264 261 262 265 264 262 261 263 264 263 261 259 254 251 249 247 247 249 250 250 250 250 249 248 247 248 249 250 252 254 254 252 251 251 250 251 252 252 252 256 260 264 268 271 270 268 268 268 267 266 265 266 266 267 267 267 267 267 267 268
243 235 246 250 252 257 256 255 256 250 250 251 248 246 244 244 246 248 251 253 254 256 258 263 268 270 271 271 270 266 264 264 263 261 261 261 260 259 256 253 251 250 249 250 250 249 249 249 247 246 246 246 247 247 246 246 245 244 244 245 247 250 251 250 252 254 257 260 265 268 267 265 264 263 262 262 264 267 267 266 265 264 263 262 261 262
246 239 249 258 258 257 255 254 255 250 246 248 252 250 244 244 249 252 255 256 258 260 260 263 267 269 268 268 269 267 265 264 262 260 257 255 255 256 256 256 254 252 250 249 249 248 246 244 243 242 242 242 242 242 239 238 238 239 241 243 246 249 251 251 253 254 255 258 261 264 265 265 265 264 262 261 263 266 267 266 264 262 262 262 262 262
250 250 256 259 257 258 258 256 258 258 255 250 250 252 252 254 255 254 256 259 260 262 263 264 265 265 266 261 261 268 270 265 259 257 256 253 252 252 252 255 255 252 250 249 247 247 246 244 240 238 237 237 238 239 238 236 235 236 239 243 247 250 251 252 254 255 255 257 260 264 266 266 267 266 265 264 263 264 266 267 265 263 262 264 266 267
253 254 254 255 257 258 259 259 260 261 259 253 249 251 254 256 256 257 258 259 262 263 263 264 263 264 267 260 258 267 271 263 252 252 256 255 252 249 248 250 252 251 251 249 247 247 247 245 241 238 237 236 236 238 240 240 240 240 241 242 245 248 250 251 253 253 253 255 258 263 267 268 267 267 268 268 265 263 262 263 264 264 263 265 266 267
256 255 253 255 259 261 260 258 255 253 253 254 254 254 253 253 254 255 256 258 262 264 264 264 263 261 257 258 264 268 263 258 256 256 258 256 253 249 246 246 247 249 249 249 249 248 247 245 243 240 238 238 239 241 245 247 247 246 245 244 244 248 249 248 249 251 251 252 255 262 266 266 266 267 268 269 268 264 260 260 261 262 264 264 264 263
256 256 254 253 256 260 260 256 254 254 254 254 257 258 256 254 254 255 256 257 259 261 262 263 264 261 256 259 264 262 254 259 267 266 262 259 254 250 246 245 245 246 248 248 248 247 245 244 242 241 240 241 243 246 249 252 252 251 249 246 245 251 255 252 250 251 252 254 258 263 265 263 264 264 263 267 269 266 262 259 259 260 262 262 260 259
258 260 259 256 255 255 257 258 259 259 258 258 258 259 259 257 258 260 261 258 256 257 259 260 262 263 262 262 263 261 259 263 267 268 266 263 259 254 250 250 248 247 247 246 246 245 243 241 240 240 239 240 244 247 250 252 255 255 252 248 248 254 260 260 256 255 256 260 264 265 265 264 261 259 261 265 266 266 264 261 259 259 259 259 259 259
262 264 263 260 259 257 257 262 263 261 261 260 258 258 259 257 257 259 259 259 257 257 259 261 263 265 266 266 264 263 264 265 265 267 267 266 264 260 258 257 253 249 247 246 245 244 242 240 238 238 238 238 242 246 249 251 253 252 250 247 249 253 258 260 260 258 258 261 263 263 267 267 261 255 257 262 263 266 266 261 260 260 258 258 259 260
264 264 263 262 262 262 262 265 267 267 266 264 261 260 257 255 255 256 257 259 258 256 257 259 260 263 265 265 264 264 264 263 264 266 265 265 265 265 264 262 257 252 248 246 245 244 243 241 238 238 238 238 240 244 248 252 254 254 252 251 252 254 255 256 257 258 258 259 260 260 263 266 262 256 255 257 261 268 267 262 263 263 259 259 260 261
262 262 263 263 263 263 264 263 262 263 264 265 266 264 261 258 257 256 255 255 255 254 254 255 256 258 261 262 264 265 265 265 265 267 267 264 264 264 264 264 261 256 251 247 246 245 244 243 241 239 239 240 242 243 244 248 252 255 256 256 257 257 257 257 256 257 258 258 260 260 260 264 265 260 258 259 262 267 268 264 264 264 263 263 262 261
262 261 261 262 262 262 261 257 255 255 257 259 260 262 265 266 262 258 254 254 255 254 252 252 253 256 259 262 264 265 265 265 266 266 266 263 261 260 261 262 262 259 255 251 248 247 246 246 244 242 241 242 245 246 246 248 250 252 254 256 258 259 259 260 260 259 259 258 259 261 260 262 264 262 262 264 265 265 265 265 264 263 264 264 262 260
261 260 260 261 262 262 261 259 258 257 257 259 259 258 261 263 262 261 259 257 257 256 254 252 250 252 255 259 262 263 262 260 261 261 261 261 261 259 259 260 260 259 257 254 252 250 248 247 247 246 246 246 247 249 250 251 251 252 253 253 255 257 258 260 261 261 262 262 261 261 260 260 261 262 263 265 265 263 262 263 263 262 262 263 262 262
260 261 261 261 261 261 262 262 261 260 258 259 260 259 259 260 262 264 264 259 257 259 260 257 253 251 251 251 254 257 258 257 258 259 258 259 261 259 257 258 259 259 257 254 251 250 249 249 249 249 249 249 250 251 252 253 254 254 253 252 252 253 255 256 258 259 260 261 262 262 261 261 262 263 262 262 262 261 260 261 262 262 261 262 263 263
261 260 260 260 259 258 259 259 259 260 260 260 260 261 261 261 261 263 264 262 260 259 260 260 258 255 252 250 250 252 256 258 259 258 257 258 261 259 257 257 258 259 257 253 251 252 251 251 252 253 253 253 253 253 254 254 255 254 254 253 251 251 251 253 254 256 257 259 259 260 260 260 261 262 262 261 261 260 260 260 261 261 262 263 264 264
262 261 261 261 260 258 257 257 257 259 259 260 261 262 262 261 261 263 264 265 263 261 258 258 258 256 255 255 253 253 255 257 258 259 259 259 260 262 261 260 258 259 258 257 256 256 256 256 256 256 256 257 257 256 256 256 256 255 255 254 253 252 251 251 252 254 255 257 258 259 259 260 260 260 261 262 262 262 261 261 261 261 262 263 264 265
265 264 263 262 261 260 260 260 261 260 259 259 261 263 264 264 263 263 264 263 263 262 259 258 259 259 260 259 257 256 257 258 259 260 261 261 261 262 263 261 260 259 259 259 259 259 257 257 258 257 256 258 259 259 259 259 258 258 257 256 256 254 253 252 251 252 253 255 256 257 258 259 259 260 261 262 263 263 263 263 262 261 261 262 263 264
268 267 265 264 264 265 264 263 262 262 262 263 264 265 266 265 264 263 263 263 263 263 262 261 261 262 262 260 260 260 260 260 260 258 258 258 259 260 260 259 259 259 258 259 261 261 259 258 259 258 258 261 262 261 261 261 260 260 259 258 258 256 255 253 252 251 253 256 256 256 256 257 258 258 259 260 262 263 264 265 265 265 264 264 264 264
266 265 264 265 267 269 269 266 264 264 264 266 267 266 264 264 264 264 263 263 263 263 263 263 262 261 261 261 262 261 260 260 258 257 256 255 256 257 258 258 260 261 260 260 260 261 261 262 262 262 263 264 263 261 261 260 260 260 260 260 259 258 257 255 253 251 253 255 255 254 254 255 255 255 256 258 260 261 262 264 265 266 267 267 268 268
262 263 263 263 265 267 268 267 267 268 268 269 268 266 266 266 267 266 265 264 263 263 263 263 262 261 261 262 263 262 262 260 258 257 257 256 256 257 258 259 261 262 261 260 260 261 263 264 264 264 264 264 263 261 260 260 259 259 259 259 259 258 257 256 255 253 252 254 254 253 252 252 252 253 255 257 259 261 262 262 263 264 265 266 268 269
260 263 266 266 265 266 266 266 268 271 272 270 268 268 269 270 269 268 267 266 265 264 263 262 262 263 263 264 264 264 263 262 260 259 259 257 257 256 256 257 257 258 259 259 260 261 264 265 266 266 265 264 263 262 261 261 260 259 259 259 258 258 258 257 256 255 254 254 255 256 256 256 255 256 258 260 262 263 264 264 264 264 264 265 267 268
265 267 268 268 268 268 268 268 270 272 272 272 271 273 273 273 271 270 270 268 267 266 265 264 265 265 265 265 265 265 264 264 263 261 257 255 255 253 252 252 253 255 257 259 260 263 265 267 267 267 266 264 264 263 263 262 262 261 260 260 259 259 259 258 258 257 256 256 256 257 258 258 258 259 260 262 263 264 265 265 265 265 265 265 266 267
271 271 270 270 270 269 269 269 270 271 271 272 273 274 274 273 272 272 271 269 268 267 267 267 267 266 266 265 264 265 265 264 262 259 255 253 254 252 251 252 252 254 257 259 261 262 264 266 267 266 265 264 264 263 263 263 263 262 262 262 261 261 261 261 260 260 259 259 258 258 258 259 259 260 260 261 262 262 263 263 264 264 264 264 265 265
272 271 269 268 267 267 267 268 269 270 270 271 271 271 270 269 269 269 268 268 268 269 269 268 266 265 265 265 264 264 263 261 258 256 256 255 255 254 254 254 254 255 257 259 260 261 263 264 265 265 265 265 264 264 264 264 264 263 263 263 263 263 263 263 263 263 262 261 261 260 260 260 260 260 260 261 261 261 261 261 262 262 263 263 264 264
272 268 265 263 262 264 267 268 270 272 270 268 267 267 266 265 265 266 266 266 267 267 267 266 266 265 265 265 264 262 259 256 254 253 253 253 253 255 255 255 255 255 256 257 259 260 262 263 263 264 264 264 265 265 265 264 264 264 264 264 264 263 263 263 263 263 262 262 262 262 261 261 261 261 261 261 260 260 260 260 260 261 262 262 262 263
272 266 261 261 262 265 267 268 266 267 268 268 266 263 263 263 264 265 265 266 267 265 265 265 265 264 263 263 263 260 255 252 251 250 250 250 251 254 255 254 255 256 256 257 259 260 260 261 261 262 263 263 264 264 264 265 265 265 265 264 264 264 263 262 262 261 261 261 262 262 261 261 261 261 260 261 261 261 261 261 260 260 261 262 262 262
266 261 257 258 259 258 259 259 258 259 264 266 265 264 264 264 263 263 263 265 265 264 264 264 264 263 261 259 259 258 254 252 251 250 249 248 250 252 253 253 255 257 258 259 260 260 260 260 260 261 261 262 263 263 264 265 265 265 265 264 264 263 262 261 260 260 260 260 260 260 261 261 260 260 260 260 261 261 261 262 262 261 261 262 262 262
256 257 258 258 257 255 254 256 258 260 263 265 265 266 265 262 261 261 262 263 264 264 265 265 264 263 261 259 257 255 253 252 252 252 251 249 249 251 253 254 256 258 259 260 260 260 260 260 261 261 262 262 263 263 264 264 264 265 264 264 263 263 261 260 259 258 258 258 259 259 259 259 259 259 259 260 260 260 261 261 262 262 262 263 263 263
258 259 259 257 256 256 256 257 259 260 261 262 263 263 263 262 262 262 262 263 264 265 265 264 262 261 261 261 260 258 256 254 254 254 254 253 251 252 254 256 257 257 258 259 260 260 261 261 262 262 262 263 263 264 264 264 264 264 264 264 263 262 262 261 261 260 259 259 259 259 258 258 258 258 258 258 259 259 260 260 261 262 262 263 263 264
262 263 260 257 256 258 258 258 258 260 261 262 263 264 265 266 266 266 266 265 264 263 263 264 263 262 262 262 262 262 260 258 256 256 256 255 254 254 255 256 258 259 259 260 260 260 261 261 262 262 262 263 263 264 264 264 264 264 264 264 264 263 263 262 262 261 261 260 260 259 258 258 258 258 258 258 258 259 259 259 260 261 261 262 263 263
264 263 263 262 262 263 264 263 262 262 264 264 265 267 268 270 271 272 271 269 266 264 263 263 264 264 264 264 263 263 262 261 260 260 259 258 257 256 255 255 256 257 258 259 260 260 261 261 262 262 263 263 263 263 263 264 264 264 264 264 264 263 263 263 262 261 261 260 260 259 259 259 258 258 258 258 258 259 260 260 260 260 261 261 262 262
267 266 266 266 265 264 265 266 266 266 266 266 266 268 270 271 271 270 268 267 267 267 267 266 266 266 266 265 264 264 263 263 263 262 261 261 260 258 257 256 255 256 257 257 258 259 260 261 262 262 263 263 263 263 263 264 264 265 264 264 264 264 264 264 263 262 262 261 261 260 260 260 259 259 259 258 258 259 260 259 259 259 260 260 260 261
271 271 270 269 268 267 266 266 266 266 268 269 269 269 268 267 266 267 267 267 267 268 269 269 269 268 268 267 267 266 266 266 265 265 264 264 263 262 262 262 261 261 261 260 260 260 260 260 260 261 261 261 262 263 263 264 264 265 265 266 266 266 265 265 265 264 263 263 262 261 261 261 260 260 260 258 258 259 259 258 258 258 258 259 259 260
275 275 273 271 271 271 271 269 267 266 267 269 269 268 266 266 266 267 268 269 269 269 269 270 269 269 269 269 269 268 267 267 267 266 266 265 265 265 265 265 265 265 264 263 263 263 263 262 261 261 261 261 262 263 263 264 265 265 265 266 266 266 266 266 266 265 264 264 263 262 262 263 263 262 262 261 260 259 258 258 258 257 257 258 259 259
276 275 274 274 274 274 271 269 269 271 271 270 269 269 269 269 269 269 269 269 270 270 270 270 270 271 271 271 271 270 269 267 267 266 266 266 266 266 266 265 265 264 264 264 264 263 263 263 263 263 264 264 264 265 264 264 264 265 265 265 265 265 265 265 266 266 265 265 265 265 265 265 265 264 264 263 262 260 259 258 257 256 256 257 258 258
277 276 276 277 277 276 273 271 271 273 274 274 273 272 271 271 272 272 272 271 271 270 271 272 272 273 272 272 271 271 269 268 267 266 266 266 265 265 265 264 263 263 263 263 263 263 263 264 264 264 265 265 265 266 266 266 265 265 266 266 265 265 266 266 266 266 267 267 267 266 266 266 266 265 265 264 262 260 258 256 255 255 256 256 255 253